Weather History for Kyiv, Ukraine

Change the Weather History Date:

Saturday, November 16, 2013

  Actual Average Record
Temperature  
Mean Temperature 38 °F -  
Max Temperature 41 °F - - ()
Min Temperature 35 °F - - ()
Degree Days  
Heating Degree Days 27    
Moisture  
Dew Point 33 °F    
Average Humidity 77    
Maximum Humidity 93    
Minimum Humidity 52    
Precipitation  
Precipitation 0.00 in 0.07 in - ()
Sea Level Pressure  
Sea Level Pressure 30.19 in    
Wind  
Wind Speed 7 mph ()    
Max Wind Speed 18 mph    
Max Gust Speed -    
Visibility 6.7 miles    
Events Rain    
T = Trace of Precipitation, MM = Missing Value Source: Averaged Metar Reports

Daily Weather History Graph

Daily Weather History Graph

Search for Another Location

Airport:

Trip Planner

Search our weather history database for the weather conditions in past years. The results will help you decide how hot, cold, wet, or windy it might be!

Date:

Astronomy

Nov. 16, 2013 Rise Set
Actual Time 7:13 AM EET 4:11 PM EET
Civil Twilight 6:37 AM EET 4:47 PM EET
Nautical Twilight 5:58 AM EET 5:27 PM EET
Astronomical Twilight 5:19 AM EET 6:05 PM EET
Moon 3:39 PM EET (11/16) 5:43 AM EET (11/16)
Length of Visible Light 10h 09m
Length of Day
8h 57m
Waxing Gibbous, 99% of the Moon is Illuminated
Nov 16
Waxing Gibbous
Nov 17
Full
Nov 25
Last Quarter
Dec 3
New
Dec 9
First Quarter

Hourly Weather History & Observations

Time (EET) Temp. Windchill Dew Point Humidity Pressure Visibility Wind Dir Wind Speed Gust Speed Precip Events Conditions
12:00 AM 39.2 °F 36.0 °F 30.2 °F 70% 30.36 in 6.2 mi WSW 4.5 mph - N/A   Overcast
12:30 AM 37.4 °F 33.9 °F 30.2 °F 75% 30.33 in 6.2 mi SW 4.5 mph - N/A   Overcast
1:00 AM 37.4 °F 33.9 °F 30.2 °F 75% 30.33 in 6.2 mi WSW 4.5 mph - N/A   Overcast
1:30 AM 37.4 °F 33.9 °F 30.2 °F 75% 30.33 in 6.2 mi WSW 4.5 mph - N/A   Overcast
2:00 AM 39 °F - 28 °F 52% 30.35 in 12 mi WSW 6.7 mph - -   Overcast
2:00 AM 37.4 °F 32.2 °F 30.2 °F 75% 30.30 in 6.2 mi SW 6.7 mph - N/A   Overcast
2:30 AM 37.4 °F 33.9 °F 30.2 °F 75% 30.30 in 6.2 mi SW 4.5 mph - N/A   Overcast
3:00 AM 37.4 °F 33.9 °F 30.2 °F 75% 30.30 in 6.2 mi West 4.5 mph - N/A   Overcast
3:30 AM 37.4 °F 33.9 °F 30.2 °F 75% 30.30 in 6.2 mi WSW 4.5 mph - N/A   Overcast
4:00 AM 37.4 °F 33.9 °F 30.2 °F 75% 30.27 in 6.2 mi SW 4.5 mph - N/A   Overcast
4:30 AM 37.4 °F 33.9 °F 30.2 °F 75% 30.27 in 6.2 mi WSW 4.5 mph - N/A   Overcast
5:00 AM 38 °F - 29 °F 60% 30.30 in 12 mi WSW 4.5 mph - -   Mostly Cloudy
5:00 AM 37.4 °F 32.2 °F 30.2 °F 75% 30.27 in 6.2 mi WSW 6.7 mph - N/A   Overcast
5:30 AM 37.4 °F 32.2 °F 30.2 °F 75% 30.24 in 6.2 mi WSW 6.7 mph - N/A   Overcast
6:00 AM 37.4 °F 33.9 °F 30.2 °F 75% 30.27 in 6.2 mi West 4.5 mph - N/A   Overcast
6:30 AM 37.4 °F 32.2 °F 30.2 °F 75% 30.24 in 6.2 mi WSW 6.7 mph - N/A   Overcast
7:00 AM 37.4 °F 32.2 °F 30.2 °F 75% 30.24 in 6.2 mi West 6.7 mph - N/A   Mostly Cloudy
7:30 AM 35.6 °F 30.0 °F 30.2 °F 81% 30.24 in - WSW 6.7 mph - N/A   Clear
8:00 AM 35.6 °F 30.0 °F 32.0 °F 87% 30.24 in 6.2 mi West 6.7 mph - N/A   Mostly Cloudy
8:30 AM 37.4 °F 30.9 °F 32.0 °F 81% 30.24 in 6.2 mi West 8.9 mph - N/A   Mostly Cloudy
9:00 AM 37.4 °F 30.9 °F 32.0 °F 81% 30.24 in 6.2 mi West 8.9 mph - N/A   Mostly Cloudy
9:30 AM 37.4 °F 30.9 °F 32.0 °F 81% 30.24 in 6.2 mi West 8.9 mph - N/A   Mostly Cloudy
10:00 AM 37.4 °F 32.2 °F 32.0 °F 81% 30.21 in 6.2 mi West 6.7 mph - N/A   Mostly Cloudy
10:30 AM 39.2 °F 33.1 °F 32.0 °F 75% 30.21 in - West 8.9 mph - N/A   Clear
11:00 AM 39 °F - 31 °F 65% 30.24 in 12 mi West 6.7 mph - -   Overcast
11:00 AM 39.2 °F 34.4 °F 32.0 °F 75% 30.21 in - West 6.7 mph - N/A   Clear
11:30 AM 39.2 °F 33.1 °F 32.0 °F 75% 30.21 in - West 8.9 mph - N/A   Clear
12:00 PM 39.2 °F 32.2 °F 32.0 °F 75% 30.18 in - West 11.2 mph - N/A   Clear
12:30 PM 41.0 °F 34.4 °F 32.0 °F 70% 30.18 in - West 11.2 mph - N/A   Clear
1:00 PM 41.0 °F 34.4 °F 32.0 °F 70% 30.18 in 6.2 mi West 11.2 mph - N/A   Mostly Cloudy
1:30 PM 41.0 °F 34.4 °F 32.0 °F 70% 30.15 in 6.2 mi West 11.2 mph - N/A   Mostly Cloudy
2:00 PM 41 °F - 31 °F 56% 30.18 in 12 mi WNW 8.9 mph - -   Overcast
2:00 PM 41.0 °F 33.6 °F 32.0 °F 70% 30.15 in 6.2 mi West 13.4 mph - N/A   Mostly Cloudy
2:30 PM 41.0 °F 33.6 °F 32.0 °F 70% 30.12 in 6.2 mi West 13.4 mph - N/A   Mostly Cloudy
3:00 PM 41.0 °F 33.6 °F 32.0 °F 70% 30.12 in 6.2 mi West 13.4 mph - N/A   Mostly Cloudy
3:30 PM 41.0 °F 33.6 °F 33.8 °F 76% 30.12 in 6.2 mi West 13.4 mph - N/A   Mostly Cloudy
4:00 PM 41.0 °F 33.6 °F 33.8 °F 76% 30.12 in 6.2 mi West 13.4 mph - N/A   Mostly Cloudy
4:30 PM 41.0 °F 33.6 °F 33.8 °F 76% 30.09 in 6.2 mi West 13.4 mph - N/A   Overcast
5:00 PM 40 °F - 33 °F 67% 30.12 in 12 mi West 8.9 mph - -   Mostly Cloudy
5:00 PM 39.2 °F 31.3 °F 35.6 °F 87% 30.09 in 6.2 mi West 13.4 mph - N/A Rain Light Rain
5:30 PM 39.2 °F 30.0 °F 35.6 °F 87% 30.09 in - West 17.9 mph - N/A Rain Light Rain
6:00 PM 39.2 °F 31.3 °F 37.4 °F 93% 30.09 in 4.3 mi West 13.4 mph - N/A Rain Light Rain
6:30 PM 39.2 °F 32.2 °F 37.4 °F 93% 30.09 in 5.6 mi West 11.2 mph - N/A Rain Light Rain
7:00 PM 39.2 °F 32.2 °F 35.6 °F 87% 30.06 in 6.2 mi West 11.2 mph - N/A   Overcast
7:30 PM 39.2 °F 31.3 °F 35.6 °F 87% 30.06 in 5.6 mi WNW 13.4 mph - N/A   Overcast
8:00 PM 40 °F - 32 °F 64% 30.09 in 12 mi WNW 8.9 mph - -   Overcast
8:00 PM 39.2 °F 32.2 °F 35.6 °F 87% 30.06 in 5.6 mi WNW 11.2 mph - N/A   Overcast
8:30 PM 39.2 °F 32.2 °F 35.6 °F 87% 30.06 in 5.0 mi WNW 11.2 mph - N/A   Overcast
9:00 PM 39.2 °F 31.3 °F 35.6 °F 87% 30.09 in 5.6 mi NW 13.4 mph - N/A   Overcast
9:30 PM 39.2 °F 33.1 °F 35.6 °F 87% 30.09 in - WNW 8.9 mph - N/A   Light Drizzle
10:00 PM 39.2 °F 32.2 °F 35.6 °F 87% 30.09 in 4.3 mi WNW 11.2 mph - N/A   Light Drizzle
10:30 PM 39.2 °F 32.2 °F 37.4 °F 93% 30.09 in 3.7 mi WNW 11.2 mph - N/A   Overcast
11:00 PM 39 °F - 35 °F 80% 30.12 in 12 mi NW 6.7 mph - -   Overcast
11:00 PM 39.2 °F 32.2 °F 37.4 °F 93% 30.09 in 3.7 mi WNW 11.2 mph - N/A   Overcast
11:30 PM 39.2 °F 33.1 °F 37.4 °F 93% 30.09 in 3.1 mi WNW 8.9 mph - N/A   Light Drizzle